Weather in Razdel'naya

Ukraine / Odesa District     46˚51′05″N   30˚04′23″E
temp.,
°C
wind,
m/s
gust,
m/s
humid.,
%
clouds,
%
prec.,
mm/h
press.,
hPa
HPBL,
m
27 november, fri
fri2723:00+3˚s23870 0.0 102426
02:00+3˚s23830 0.0 102325
05:00+2˚ssw23860 0.0 102222
08:00+2˚sw23890 0.0 102228
11:00+6˚sw34600 0.0 1022358
14:00+9˚sw34490 0.0 1020602
17:00+5˚w12630 0.0 102022
20:00+3˚wnw11670 0.0 102022
28 november, sat
sat2823:00+2˚nw22689 0.0 102022
02:00+2˚nnw126854 0.0 102022
05:00+1˚n2270100 0.0 101922
08:00+1˚n227694 0.0 102023
11:00+5˚nne22597 0.0 1019329
14:00+7˚ne115220 0.0 1018498
17:00+4˚ne1265100 0.0 101822
20:00+3˚ne1269100 0.0 101822
29 november, sun
sun2923:00+2˚nne1173100 0.0 101722
02:00+2˚nw1176100 0.0 101722
05:00+1˚wnw1281100 0.0 101722
08:00+2˚nw2389100 0.1 101875
11:00+4˚nw2387100 0.0 1019264
14:00+4˚nw3486100 0.1 1019374
17:00+3˚nnw339183 0.0 102058
20:00+2˚nnw338850 0.0 102154
30 november, mon
mon3023:00+1˚n238640 0.0 102156
02:00+1˚n348870 0.0 102296
05:00+1˚nne4884100 0.0 1022242
08:00+1˚nne5979100 0.0 1023292
11:00+3˚nne5770100 0.1 1023444
14:00+2˚n71094100 0.6 1023475
17:00+1˚n71195100 0.8 1024444
20:00n81396100 2.3 1025489
1 december, tue
tue123:00+1˚n71194100 0.2 1025496
02:00+1˚n71188100 0.2 1025515
05:00+1˚n71188100 0.0 1025464
08:00+1˚n6990100 0.0 1025376
11:00+1˚n5889100 0.0 1024364
14:00+1˚nnw5792100 0.0 1024341
17:00+1˚n4696100 0.0 1023273
20:00+2˚nnw2397100 0.0 1023102